Flag for U.S.A. Weather past 2 weeks in Anchorage, Alaska, U.S.A.

Now
20 °F

Clear.


Feels Like: 13 °F
Forecast: 18 / 27 °F
Wind: 5 mph from Northeast

Location: Lake Hood Seaplane

Current Time: Dec 19, 2014 at 11:49:18 PM

Latest Report: Dec 19, 2014 at 10:53 PM


Visibility: 10 mi

Pressure: 29.12 "Hg

Humidity: 71%

Dew point: 12 °F

Location of AnchorageLocation

Historic Weather in Anchorage — Graph

°F

Anchorage temperature yesterday

Maximum temperature yesterday: 25 °F (at 12:53 AM)
Minimum temperature yesterday: 15 °F (at 10:53 PM)
Average temperature yesterday: 20 °F

Past Weeks' High & Low Weather Summary

 TemperatureHumidityPressure
High38 °F (Dec 8, 12:53 PM)93% (Dec 11, 7:00 AM)29.82 "Hg (Dec 11, 7:00 AM)
Low12 °F (Dec 13, 2:04 AM)63% (Dec 19, 2:53 PM)28.74 "Hg (Dec 8, 9:53 PM)
Average27 °F83%29.30 "Hg
* Reported Dec 4 10:53 PM — Dec 19 10:53 PM, Anchorage, Weather by CustomWeather, © 2014

Note: Actual official high and low records may vary slightly from our data, if they occured in-between our weather recording intervals... More about our weather records

Advertising

Anchorage weather history for previous 24 hours

 ConditionsComfort  
Time TempWeatherWind HumidityBarometerVisibility
10:53 PM
Dec 19
20 °FClear.5 mph71%29.12 "Hg10 mi
9:53 PM21 °FClear.3 mph71%29.13 "Hg10 mi
8:53 PM22 °FClear.3 mph68%29.13 "Hg10 mi
7:53 PM23 °FClear.No wind68%29.14 "Hg10 mi
6:53 PM23 °FClear.5 mph68%29.15 "Hg10 mi
5:53 PM22 °FClear.6 mph72%29.15 "Hg10 mi
4:53 PM23 °FOvercast.5 mph68%29.17 "Hg10 mi
3:53 PM24 °FPassing clouds.6 mph65%29.18 "Hg10 mi
2:53 PM25 °FPartly sunny.7 mph63%29.18 "Hg10 mi
1:53 PM25 °FScattered clouds.5 mph66%29.19 "Hg10 mi
12:53 PM23 °FScattered clouds.5 mph72%29.19 "Hg10 mi
11:53 AM23 °FPassing clouds.5 mph68%29.20 "Hg10 mi
10:53 AM23 °FSunny.7 mph72%29.20 "Hg10 mi
9:53 AM23 °FClear.5 mph72%29.20 "Hg10 mi
8:53 AM22 °FClear.No wind75%29.20 "Hg10 mi
7:53 AM23 °FClear.6 mph72%29.19 "Hg10 mi
6:53 AM23 °FPassing clouds.3 mph74%29.21 "Hg10 mi
5:53 AM21 °FPassing clouds.No wind81%29.21 "Hg10 mi
4:53 AM21 °FPassing clouds.No wind81%29.21 "Hg10 mi
3:53 AM23 °FOvercast.3 mph78%29.22 "Hg10 mi
2:53 AM22 °FPassing clouds.6 mph78%29.22 "Hg10 mi
1:53 AM19 °FPassing clouds.No wind81%29.22 "Hg10 mi
12:53 AM17 °FClear.No wind80%29.23 "Hg10 mi
11:53 PM
Dec 18
15 °FPassing clouds.No wind80%29.23 "Hg10 mi
Weather by CustomWeather, © 2014

See weather overviewHow to use our weather pages